Location: ??????
(56.0120°N, 39.1740°E)
Time: 19:17:51
(UTC+00:00)

Cosmos 1980 - Pass Details

Date: 14 April 2026
Orbit: 838 x 845 km, 71.0° (Epoch: 19 May)

Event Time Altitude Azimuth Distance (km) Brightness Sun altitude
Rises 18:16:03 0° 193° (SSW) 3,382 6.6 -13.8°
Reaches altitude 10° 18:18:32 10° 189° (S) 2,451 5.8 -14.0°
Maximum altitude 18:23:57 52° 115° (ESE) 1,042 3.8 -14.6°
Drops below altitude 10° 18:29:24 10° 40° (NE) 2,466 6.2 -15.1°
Sets 18:31:54 0° 36° (NE) 3,404 7.0 -15.4°
